Regional Weather Roundup
Issued by NWS

Home | Current Version | Previous Version | Text Only | Print | Product List | Glossary Off
Versions: 1 2 3 4 5 6 7 8 9 10 11 12 13 14 15 16 17 18 19 20 21 22 23 24 25 26 27 28 29 30 31 32 33 34 35 36 37 38 39 40 41 42 43 44 45 46 47 48 49 50

000
ASUS45 KABQ 010501
RWRNM
WEATHER ROUNDUP FOR NEW MEXICO
NATIONAL WEATHER SERVICE ALBUQUERQUE NM
1000 PM MST SAT JAN 31 2015

NOTE: "FAIR" MEANS FEW OR NO CLOUDS BELOW 12,000 FEET AGL WITH NO
       SIGNIFICANT WEATHER OR OBSTRUCTIONS TO VISION.

      THIS PRODUCT IS RELEASED AS TWO VERSIONS.  ONE VERSION NEAR
      THE TOP OF THE HOUR CONTAINING PRELIMINARY DATA FROM ALBUQUERQUE
      AND OTHER STATIONS.  A FINAL VERSION WITH ADDITIONAL DATA IS
      ISSUED ABOUT 10 MINUTES AFTER THE HOUR.

NMZ501-503-504-510>518-010600-
NORTHWEST PLATEAU/NORTHCENTRAL MOUNTAINS

CITY           SKY/WX    TMP DP  RH WIND       PRES   REMARKS
FARMINGTON     CLEAR     34  32  92 W9        29.96R WCI  27
SANTA FE       CLOUDY    33  31  92 SW6       29.93R FOG     WCI  28
TAOS           CLOUDY    30  28  93 CALM      29.93R

$$
NMZ402-403-502-505>509-010600-
WESTCENTRAL MOUNTAINS/SOUTHWEST MOUNTAINS

CITY           SKY/WX    TMP DP  RH WIND       PRES   REMARKS
GALLUP         CLOUDY    33  31  92 CALM      29.99R
SILVER CITY    MOCLDY    41  39  93 NW12      29.97S

$$
NMZ407-409-411-412-010600-
SOUTHERN DESERTS

CITY           SKY/WX    TMP DP  RH WIND       PRES   REMARKS
DEMING         CLEAR     43  41  93 W8        29.95R
HOLLOMAN AFB   CLOUDY    44  44 100 CALM      29.91R
ALAMOGORDO     CLOUDY    46  43  87 CALM      29.93S
T OR C         MOCLDY    43  41  93 NE6       29.91S

$$
NMZ519>523-010600-
CENTRAL VALLEYS/CENTRAL HIGHLANDS

CITY           SKY/WX    TMP DP  RH WIND       PRES   REMARKS
ALBUQUERQUE    MOCLDY    38  34  85 N5        29.96R WCI  34
DOUBLE EAGLE   MOCLDY    30  29  95 CALM      29.96S
CLINES CORNERS MOCLDY    32  30  92 NW13      29.89R WCI  22
BELEN          CLOUDY    38  38 100 N7        29.95S WCI  32
SOCORRO        NOT AVBL

$$
NMZ524>526-539-540-010600-
SOUTHCENTRAL MOUNTAINS

CITY           SKY/WX    TMP DP  RH WIND       PRES   REMARKS
RUIDOSO        NOT AVBL

$$
NMZ527>531-010600-
NORTHEAST HIGHLANDS/NORTHEAST PLAINS

CITY           SKY/WX    TMP DP  RH WIND       PRES   REMARKS
LAS VEGAS      CLOUDY    32  27  81 E5        29.84R WCI  27
RATON          PTCLDY    28  27  96 NE6       29.83R WCI  22
CLAYTON        CLOUDY    35  34  96 N12       29.83R WCI  27

$$
NMZ532>537-010600-
EASTCENTRAL PLAINS

CITY           SKY/WX    TMP DP  RH WIND       PRES   REMARKS
TUCUMCARI      CLEAR     36  34  92 N6        29.81R WCI  31
CANNON AFB     PTCLDY    41 N/A N/A SW9       29.82S
CLOVIS AIRPORT CLOUDY    39  37  93 W17       29.82S WCI  30

$$
NMZ028-029-538-010600-
SOUTHEAST PLAINS

CITY           SKY/WX    TMP DP  RH WIND       PRES   REMARKS
ROSWELL        CLOUDY    44  41  89 S3        29.88R
ARTESIA        CLOUDY    43  43 100 CALM      29.90S FOG
CARLSBAD       MOCLDY    44  42  93 W6        29.88S FOG
HOBBS          FOG       45  45 100 S7        29.89S VSB 1/4


$$



USA.gov is the U.S. government's official web portal to all federal, state and local government web resources and services.